map of CMN home
CMN - Airport
Location
City:  Casablanca, Casablanca (Dar el Beda), Morocco
Name:Mohammed V International Airport
ICAO:GMMN
IATA:CMN

Details
Type:Airport (Aerodrome, Airfield)
Use:Public/Civil, International (customs port of entry)
Latitude:3322'03"N (33.367467)
Longitude:735'24"W (-7.589966)
Datum:WGS 1984
Elevation:656 ft (200 m)
Variation:1.90W (WMM2015 magnetic declination)
0.11 annual change
Runways:2
Longest:12205 × 148 ft (3720 × 45 m), paved

Time
Time Zone:UTC+0 (DST+1)
Local Time:

Weather
METAR:GMMN 260500Z 18003KT 9999 NSC 03/03 Q1016 NOSIG
TAF:GMMN 252300Z 2600/2706 16004KT CAVOK PROB30 2602/2607 16004KT 3000 BR SCT010
BECMG 2608/2610 16008KT 9999 SCT016 BKN100
TEMPO 2614/2618 22016KT 9999 BKN016 BKN100

Related Locations
Nearby:
Farthest:KAT: 12304 mi / 19802 km
Kaitaia, NTL, NZ

Find:

   beyond  
but within

Other Information
Maps:
NOTAMs:
Links:
Sources:

  
flag of Morocco   

Sectional Chart

Flight Planning
at skyvector.com

Satellite Image

Google Maps Satellite view

 

Copyright © 2004-2017 Karl L. Swartz. All rights reserved.
The Great Circle Mapper name and logo are trademarks of the Great Circle Mapper.
All other trademarks mentioned herein belong to their respective owners.
Please see credits for attibutions and further copyright information.

  Follow gcmap on Facebook Follow gcmap on Twitter Follow gcmap on Google+ GCmap on LinkedIn

hCard Microformat

Geo Microformat